| time (UTC) | temp F | wind direction | speed knots | gust knots | rain 1hr in | rain 24hr in | rain mn in | humidity % | barometer mb |
| 20260510171044 | 68 | 210 | 0.9 | 4.3 | 0.00 | 0.00 | 0.00 | 69 | 1013.7 |
| 20260510170543 | 68 | 195 | 3.5 | 4.3 | 0.00 | 0.00 | 0.00 | 65 | 1013.5 |
| 20260510170045 | 68 | 186 | 1.7 | 3.5 | 0.00 | 0.00 | 0.00 | 64 | 1013.5 |
| 20260510165544 | 68 | 186 | 2.6 | 3.5 | 0.00 | 0.00 | 0.00 | 66 | 1013.5 |
| 20260510165104 | 68 | 186 | 1.7 | 3.5 | 0.00 | 0.00 | 0.00 | 65 | 1013.7 |
| 20260510164540 | 68 | 182 | 1.7 | 2.6 | 0.00 | 0.00 | 0.00 | 66 | 1013.7 |
| 20260510164039 | 68 | 182 | 0.9 | 4.3 | 0.00 | 0.00 | 0.00 | 68 | 1013.6 |
| 20260510163531 | 68 | 182 | 0.9 | 4.3 | 0.00 | 0.00 | 0.00 | 66 | 1013.7 |
| 20260510163028 | 68 | 154 | 2.6 | 4.3 | 0.00 | 0.00 | 0.00 | 68 | 1013.4 |
| 20260510162604 | 67 | 204 | 1.7 | 4.3 | 0.00 | 0.00 | 0.00 | 67 | 1013.5 |
| 20260510162032 | 67 | 201 | 3.5 | 4.3 | 0.00 | 0.00 | 0.00 | 69 | 1013.7 |
| 20260510161528 | 67 | 211 | 1.7 | 3.5 | 0.00 | 0.00 | 0.00 | 69 | 1013.9 |
| 20260510161050 | 67 | 213 | 0.9 | 3.5 | 0.00 | 0.00 | 0.00 | 69 | 1013.7 |
| 20260510160547 | 67 | 204 | 2.6 | 3.5 | 0.00 | 0.00 | 0.00 | 66 | 1013.6 |
| 20260510160044 | 67 | 228 | 1.7 | 6.1 | 0.00 | 0.00 | 0.00 | 70 | 1013.7 |
| 20260510155537 | 67 | 220 | 1.7 | 6.1 | 0.00 | 0.02 | 0.00 | 68 | 1013.7 |
| 20260510155026 | 67 | 249 | 2.6 | 6.1 | 0.00 | 0.02 | 0.00 | 67 | 1013.7 |
| 20260510154543 | 67 | 275 | 2.6 | 6.1 | 0.00 | 0.02 | 0.00 | 69 | 1013.7 |
| 20260510154043 | 67 | 221 | 1.7 | 6.1 | 0.00 | 0.02 | 0.00 | 69 | 1013.8 |
| 20260510153540 | 67 | 173 | 1.7 | 4.3 | 0.00 | 0.02 | 0.00 | 69 | 1013.8 |
| 20260510153100 | 67 | 279 | 2.6 | 4.3 | 0.00 | 0.02 | 0.00 | 68 | 1013.8 |
| 20260510152530 | 67 | 252 | 1.7 | 8.7 | 0.00 | 0.02 | 0.00 | 68 | 1013.8 |
| 20260510152027 | 67 | 221 | 2.6 | 8.7 | 0.00 | 0.02 | 0.00 | 68 | 1013.9 |
| 20260510151540 | 67 | 248 | 6.1 | 8.7 | 0.00 | 0.02 | 0.00 | 68 | 1013.9 |
| 20260510151036 | 67 | 274 | 1.7 | 7.0 | 0.00 | 0.02 | 0.00 | 71 | 1013.8 |
| 20260510150554 | 66 | 242 | 1.7 | 4.3 | 0.00 | 0.02 | 0.00 | 72 | 1013.6 |
| 20260510150028 | 66 | 192 | 1.7 | 7.0 | 0.00 | 0.02 | 0.00 | 70 | 1013.6 |
| 20260510145544 | 66 | 246 | 2.6 | 7.0 | 0.00 | 0.15 | 0.00 | 72 | 1013.5 |
| 20260510145044 | 65 | 186 | 2.6 | 7.0 | 0.00 | 0.15 | 0.00 | 73 | 1013.5 |
| 20260510144534 | 65 | 239 | 1.7 | 8.7 | 0.00 | 0.15 | 0.00 | 74 | 1013.4 |
| 20260510144028 | 65 | 259 | 2.6 | 8.7 | 0.00 | 0.15 | 0.00 | 74 | 1013.2 |
| 20260510143539 | 64 | 240 | 1.7 | 4.3 | 0.00 | 0.15 | 0.00 | 75 | 1013.2 |
| 20260510143038 | 64 | 223 | 1.7 | 7.8 | 0.00 | 0.15 | 0.00 | 75 | 1013.2 |
| 20260510142532 | 64 | 200 | 5.2 | 7.8 | 0.00 | 0.15 | 0.00 | 75 | 1013.1 |
| 20260510142027 | 63 | 195 | 3.5 | 7.0 | 0.00 | 0.15 | 0.00 | 76 | 1012.9 |
| 20260510141604 | 63 | 175 | 3.5 | 7.0 | 0.00 | 0.15 | 0.00 | 77 | 1012.8 |
| 20260510141039 | 63 | 186 | 3.5 | 7.0 | 0.00 | 0.15 | 0.00 | 78 | 1012.8 |
| 20260510140541 | 62 | 194 | 1.7 | 6.1 | 0.00 | 0.15 | 0.00 | 80 | 1012.8 |
| 20260510140040 | 62 | 191 | 3.5 | 6.1 | 0.00 | 0.15 | 0.00 | 79 | 1012.7 |
| 20260510135539 | 62 | 168 | 4.3 | 6.1 | 0.00 | 0.19 | 0.00 | 80 | 1012.7 |
| 20260510135034 | 61 | 169 | 4.3 | 5.2 | 0.00 | 0.19 | 0.00 | 80 | 1012.8 |
| 20260510134527 | 61 | 217 | 1.7 | 6.1 | 0.00 | 0.19 | 0.00 | 80 | 1012.9 |
| 20260510134044 | 61 | 182 | 2.6 | 4.3 | 0.00 | 0.19 | 0.00 | 80 | 1012.9 |
| 20260510133539 | 61 | 243 | 1.7 | 4.3 | 0.00 | 0.19 | 0.00 | 81 | 1013.1 |
| 20260510133039 | 60 | 274 | 0.9 | 2.6 | 0.00 | 0.19 | 0.00 | 82 | 1013.1 |
| 20260510132533 | 60 | 274 | 0.9 | 2.6 | 0.00 | 0.19 | 0.00 | 82 | 1012.9 |
| 20260510132026 | 59 | 274 | 0.9 | 3.5 | 0.00 | 0.19 | 0.00 | 83 | 1012.9 |
| 20260510131543 | 59 | 274 | 1.7 | 3.5 | 0.00 | 0.19 | 0.00 | 83 | 1012.8 |
| 20260510131044 | 59 | 274 | 0.9 | 2.6 | 0.00 | 0.19 | 0.00 | 83 | 1012.8 |
| 20260510130535 | 59 | 274 | 0.9 | 2.6 | 0.00 | 0.19 | 0.00 | 84 | 1012.9 |
| 20260510130057 | 58 | 274 | 0.9 | 2.6 | 0.00 | 0.19 | 0.00 | 84 | 1012.8 |
| 20260510125530 | 58 | 274 | 0.9 | 2.6 | 0.00 | 0.19 | 0.00 | 85 | 1012.8 |
| 20260510125025 | 58 | 274 | 0.9 | 2.6 | 0.00 | 0.19 | 0.00 | 85 | 1012.8 |
| 20260510124539 | 57 | 274 | 0.0 | 2.6 | 0.00 | 0.19 | 0.00 | 85 | 1012.7 |
| 20260510124044 | 57 | 274 | 0.9 | 2.6 | 0.00 | 0.19 | 0.00 | 86 | 1012.6 |
| 20260510123544 | 57 | 274 | 0.0 | 1.7 | 0.00 | 0.19 | 0.00 | 86 | 1012.7 |
| 20260510123039 | 57 | 274 | 0.0 | 1.7 | 0.00 | 0.19 | 0.00 | 86 | 1012.6 |
| 20260510122533 | 56 | 274 | 0.9 | 0.9 | 0.00 | 0.19 | 0.00 | 86 | 1012.5 |
| 20260510122027 | 56 | 274 | 0.0 | 0.9 | 0.00 | 0.19 | 0.00 | 88 | 1012.4 |
| 20260510121603 | 56 | 274 | 0.0 | 0.9 | 0.00 | 0.19 | 0.00 | 88 | 1012.3 |
| 20260510121036 | 55 | 274 | 0.0 | 2.6 | 0.00 | 0.19 | 0.00 | 88 | 1012.4 |
| 20260510120527 | 55 | 274 | 0.9 | 2.6 | 0.00 | 0.19 | 0.00 | 88 | 1012.5 |
| 20260510120042 | 55 | 274 | 1.7 | 3.5 | 0.00 | 0.19 | 0.00 | 88 | 1012.5 |
| 20260510115535 | 55 | 274 | 0.9 | 3.5 | 0.00 | 0.20 | 0.00 | 88 | 1012.5 |
| 20260510115027 | 55 | 274 | 1.7 | 4.3 | 0.00 | 0.20 | 0.00 | 88 | 1012.6 |
| 20260510114543 | 55 | 249 | 1.7 | 6.1 | 0.00 | 0.20 | 0.00 | 88 | 1012.5 |
| 20260510114045 | 55 | 261 | 1.7 | 6.1 | 0.00 | 0.20 | 0.00 | 88 | 1012.5 |
| 20260510113534 | 54 | 246 | 2.6 | 6.1 | 0.00 | 0.20 | 0.00 | 88 | 1012.3 |
| 20260510113027 | 54 | 198 | 0.9 | 4.3 | 0.00 | 0.20 | 0.00 | 89 | 1012.1 |
| 20260510112605 | 54 | 238 | 1.7 | 4.3 | 0.00 | 0.20 | 0.00 | 89 | 1012.0 |
| 20260510112044 | 54 | 202 | 1.7 | 4.3 | 0.00 | 0.20 | 0.00 | 88 | 1011.9 |
| 20260510111541 | 54 | 209 | 0.9 | 4.3 | 0.00 | 0.20 | 0.00 | 88 | 1011.8 |
| 20260510111058 | 54 | 201 | 0.9 | 6.1 | 0.00 | 0.20 | 0.00 | 88 | 1011.7 |
| 20260510110555 | 54 | 236 | 1.7 | 6.1 | 0.00 | 0.20 | 0.00 | 88 | 1011.7 |
| 20260510110029 | 54 | 239 | 3.5 | 4.3 | 0.00 | 0.20 | 0.00 | 88 | 1011.7 |
| 20260510105550 | 54 | 245 | 2.6 | 3.5 | 0.00 | 0.20 | 0.00 | 87 | 1011.5 |
| 20260510105028 | 54 | 250 | 0.9 | 4.3 | 0.00 | 0.20 | 0.00 | 87 | 1011.3 |
| 20260510104601 | 54 | 243 | 1.7 | 4.3 | 0.00 | 0.20 | 0.00 | 87 | 1011.3 |
| 20260510104045 | 54 | 203 | 1.7 | 5.2 | 0.00 | 0.20 | 0.00 | 87 | 1011.1 |
| 20260510103539 | 54 | 160 | 3.5 | 6.1 | 0.00 | 0.20 | 0.00 | 87 | 1011.1 |
| 20260510103035 | 54 | 151 | 2.6 | 6.1 | 0.00 | 0.20 | 0.00 | 87 | 1011.2 |
| 20260510102525 | 54 | 150 | 3.5 | 7.0 | 0.00 | 0.20 | 0.00 | 87 | 1011.1 |
| 20260510102036 | 54 | 144 | 3.5 | 7.0 | 0.00 | 0.20 | 0.00 | 87 | 1011.1 |
| 20260510101530 | 54 | 157 | 4.3 | 7.8 | 0.00 | 0.20 | 0.00 | 87 | 1010.9 |
| 20260510101026 | 54 | 142 | 4.3 | 8.7 | 0.00 | 0.20 | 0.00 | 87 | 1010.9 |
| 20260510100543 | 54 | 163 | 4.3 | 9.6 | 0.00 | 0.20 | 0.00 | 87 | 1010.8 |
| 20260510100043 | 54 | 132 | 6.1 | 9.6 | 0.00 | 0.20 | 0.00 | 87 | 1010.7 |
| 20260510095601 | 54 | 155 | 7.0 | 9.6 | 0.00 | 0.20 | 0.00 | 87 | 1010.7 |
| 20260510095042 | 54 | 164 | 6.1 | 7.8 | 0.00 | 0.20 | 0.00 | 88 | 1010.8 |
| 20260510094600 | 54 | 144 | 4.3 | 7.8 | 0.00 | 0.20 | 0.00 | 88 | 1010.8 |
| 20260510094102 | 54 | 150 | 6.1 | 7.8 | 0.00 | 0.20 | 0.00 | 88 | 1010.7 |
| 20260510093600 | 54 | 132 | 3.5 | 6.1 | 0.00 | 0.20 | 0.00 | 89 | 1010.8 |
| 20260510093034 | 54 | 137 | 1.7 | 2.6 | 0.00 | 0.20 | 0.00 | 89 | 1010.9 |
| 20260510092525 | 54 | 107 | 1.7 | 2.6 | 0.00 | 0.20 | 0.00 | 89 | 1010.9 |
| 20260510092043 | 54 | 107 | 0.9 | 2.6 | 0.00 | 0.20 | 0.00 | 89 | 1010.9 |
| 20260510091532 | 54 | 107 | 0.9 | 3.5 | 0.00 | 0.20 | 0.00 | 89 | 1011.0 |
| 20260510091026 | 54 | 107 | 1.7 | 5.2 | 0.00 | 0.20 | 0.00 | 89 | 1011.0 |
| 20260510090543 | 54 | 78 | 1.7 | 5.2 | 0.00 | 0.20 | 0.00 | 89 | 1011.1 |
| 20260510090043 | 54 | 69 | 1.7 | 5.2 | 0.00 | 0.20 | 0.00 | 89 | 1011.2 |
| 20260510085600 | 54 | 83 | 3.5 | 5.2 | 0.00 | 0.20 | 0.00 | 89 | 1011.2 |
| 20260510085037 | 53 | 56 | 1.7 | 4.3 | 0.00 | 0.20 | 0.00 | 89 | 1011.3 |
| 20260510084553 | 53 | 48 | 1.7 | 7.8 | 0.00 | 0.20 | 0.00 | 89 | 1011.4 |
| 20260510084050 | 53 | 331 | 5.2 | 7.8 | 0.00 | 0.20 | 0.00 | 90 | 1011.7 |
| 20260510083525 | 53 | 341 | 2.6 | 10.4 | 0.00 | 0.20 | 0.00 | 90 | 1011.6 |
| 20260510083043 | 53 | 335 | 6.1 | 10.4 | 0.00 | 0.20 | 0.00 | 90 | 1011.5 |
| 20260510082542 | 53 | 326 | 7.0 | 11.3 | 0.00 | 0.20 | 0.00 | 90 | 1011.3 |
| 20260510082101 | 52 | 314 | 8.7 | 11.3 | 0.00 | 0.20 | 0.00 | 90 | 1011.1 |
| 20260510081531 | 52 | 252 | 1.7 | 3.5 | 0.00 | 0.20 | 0.00 | 90 | 1010.1 |
| 20260510081025 | 52 | 252 | 1.7 | 3.5 | 0.00 | 0.20 | 0.00 | 89 | 1010.0 |
| 20260510080541 | 52 | 252 | 2.6 | 3.5 | 0.00 | 0.20 | 0.00 | 89 | 1010.0 |
| 20260510080043 | 53 | 150 | 0.9 | 1.7 | 0.00 | 0.20 | 0.00 | 89 | 1009.8 |
| 20260510075542 | 53 | 150 | 0.9 | 2.6 | 0.00 | 0.20 | 0.00 | 89 | 1009.7 |
| 20260510075104 | 53 | 150 | 0.9 | 5.2 | 0.00 | 0.20 | 0.00 | 89 | 1009.7 |
| 20260510074540 | 53 | 150 | 1.7 | 7.0 | 0.00 | 0.20 | 0.00 | 89 | 1009.8 |
| 20260510074036 | 53 | 142 | 1.7 | 7.0 | 0.00 | 0.20 | 0.00 | 89 | 1009.7 |
| 20260510073552 | 53 | 142 | 3.5 | 6.1 | 0.00 | 0.20 | 0.00 | 90 | 1009.8 |
| 20260510073026 | 53 | 140 | 2.6 | 4.3 | 0.00 | 0.20 | 0.00 | 90 | 1009.9 |
| 20260510072542 | 53 | 144 | 3.5 | 4.3 | 0.00 | 0.20 | 0.00 | 90 | 1009.9 |
| 20260510072042 | 53 | 149 | 2.6 | 7.0 | 0.00 | 0.20 | 0.00 | 91 | 1009.8 |
| 20260510071538 | 53 | 144 | 4.3 | 7.0 | 0.00 | 0.20 | 0.00 | 91 | 1009.8 |
| 20260510071036 | 53 | 135 | 2.6 | 4.3 | 0.00 | 0.20 | 0.00 | 91 | 1009.7 |
| 20260510070529 | 53 | 124 | 1.7 | 2.6 | 0.00 | 0.20 | 0.00 | 91 | 1009.8 |
| 20260510070031 | 53 | 124 | 1.7 | 2.6 | 0.00 | 0.20 | 0.00 | 92 | 1009.9 |
| 20260510065546 | 53 | 124 | 1.7 | 2.6 | 0.00 | 0.20 | 0.00 | 91 | 1009.9 |
| 20260510065102 | 53 | 52 | 1.7 | 2.6 | 0.00 | 0.20 | 0.00 | 91 | 1010.0 |
| 20260510064542 | 53 | 52 | 1.7 | 2.6 | 0.00 | 0.20 | 0.00 | 91 | 1010.1 |
| 20260510064039 | 53 | 52 | 0.9 | 2.6 | 0.00 | 0.20 | 0.00 | 91 | 1010.1 |
| 20260510063531 | 53 | 52 | 0.9 | 2.6 | 0.00 | 0.20 | 0.00 | 91 | 1010.3 |
| 20260510063026 | 53 | 52 | 1.7 | 4.3 | 0.00 | 0.20 | 0.00 | 91 | 1010.5 |
| 20260510062542 | 53 | 42 | 1.7 | 4.3 | 0.00 | 0.20 | 0.00 | 91 | 1010.6 |
| 20260510062034 | 53 | 51 | 2.6 | 6.1 | 0.00 | 0.20 | 0.00 | 91 | 1010.5 |
| 20260510061526 | 53 | 30 | 2.6 | 6.1 | 0.00 | 0.20 | 0.00 | 91 | 1010.7 |
| 20260510061045 | 53 | 55 | 2.6 | 5.2 | 0.00 | 0.20 | 0.00 | 92 | 1010.7 |
| 20260510060543 | 53 | 51 | 1.7 | 4.3 | 0.00 | 0.20 | 0.00 | 92 | 1010.9 |
| 20260510055531 | 52 | 355 | 2.6 | 8.7 | 0.00 | 0.20 | 0.00 | 93 | 1010.9 |
| 20260510055027 | 51 | 50 | 3.5 | 16.5 | 0.00 | 0.20 | 0.00 | 93 | 1010.8 |
| 20260510054543 | 50 | 38 | 7.8 | 16.5 | 0.00 | 0.20 | 0.00 | 91 | 1011.0 |
| 20260510054038 | 50 | 61 | 0.9 | 4.3 | 0.00 | 0.20 | 0.00 | 90 | 1010.4 |
| 20260510053530 | 50 | 61 | 2.6 | 4.3 | 0.00 | 0.20 | 0.00 | 89 | 1010.3 |
| 20260510053026 | 50 | 61 | 2.6 | 3.5 | 0.00 | 0.20 | 0.00 | 88 | 1010.4 |
| 20260510052540 | 50 | 327 | 0.0 | 0.0 | 0.00 | 0.20 | 0.00 | 88 | 1010.5 |
| 20260510052039 | 50 | 327 | 0.0 | 0.0 | 0.00 | 0.20 | 0.00 | 88 | 1010.5 |
| 20260510051536 | 50 | 327 | 0.0 | 0.0 | 0.00 | 0.20 | 0.00 | 89 | 1010.3 |
| 20260510051031 | 50 | 327 | 0.0 | 0.9 | 0.00 | 0.20 | 0.00 | 89 | 1010.3 |
| 20260510050548 | 50 | 327 | 0.0 | 0.9 | 0.00 | 0.20 | 0.00 | 88 | 1010.4 |
| 20260510050104 | 50 | 327 | 0.0 | 0.0 | 0.00 | 0.20 | 0.00 | 89 | 1010.1 |
| 20260510045536 | 50 | 327 | 0.0 | 0.0 | 0.00 | 0.20 | 0.00 | 89 | 1010.1 |
| 20260510045056 | 50 | 327 | 0.0 | 0.0 | 0.00 | 0.20 | 0.00 | 89 | 1010.1 |
| 20260510044527 | 50 | 327 | 0.0 | 0.0 | 0.00 | 0.20 | 0.00 | 89 | 1010.0 |
| 20260510044041 | 50 | 327 | 0.0 | 0.0 | 0.00 | 0.20 | 0.00 | 89 | 1010.1 |
| 20260510043535 | 50 | 327 | 0.0 | 0.0 | 0.00 | 0.20 | 0.00 | 88 | 1010.1 |
| 20260510043026 | 51 | 327 | 0.0 | 0.0 | 0.00 | 0.20 | 0.00 | 88 | 1010.0 |
| 20260510042544 | 51 | 327 | 0.0 | 0.0 | 0.00 | 0.20 | 0.00 | 88 | 1009.9 |
| 20260510042034 | 51 | 327 | 0.0 | 0.0 | 0.00 | 0.20 | 0.00 | 88 | 1009.9 |
| 20260510041525 | 51 | 327 | 0.0 | 0.0 | 0.00 | 0.20 | 0.00 | 88 | 1009.9 |
| 20260510041045 | 51 | 327 | 0.0 | 0.0 | 0.00 | 0.20 | 0.00 | 88 | 1009.9 |
| 20260510040538 | 51 | 327 | 0.0 | 0.0 | 0.00 | 0.20 | 0.00 | 88 | 1009.8 |
| 20260510040057 | 52 | 327 | 0.0 | 0.0 | 0.00 | 0.20 | 0.00 | 88 | 1009.7 |
| 20260510035554 | 52 | 327 | 0.0 | 0.0 | 0.00 | 0.20 | 0.20 | 88 | 1009.7 |
| 20260510035027 | 52 | 327 | 0.0 | 0.0 | 0.00 | 0.20 | 0.20 | 89 | 1009.7 |
| 20260510034602 | 52 | 327 | 0.0 | 0.0 | 0.00 | 0.20 | 0.20 | 88 | 1009.7 |
| 20260510034041 | 52 | 327 | 0.0 | 0.0 | 0.00 | 0.20 | 0.20 | 88 | 1009.7 |
| 20260510033535 | 52 | 327 | 0.0 | 0.0 | 0.00 | 0.20 | 0.20 | 88 | 1009.8 |
| 20260510033055 | 52 | 327 | 0.0 | 0.0 | 0.00 | 0.20 | 0.20 | 88 | 1009.8 |
| 20260510032526 | 52 | 327 | 0.0 | 0.0 | 0.00 | 0.20 | 0.20 | 88 | 1009.9 |
| 20260510032044 | 52 | 327 | 0.0 | 0.0 | 0.00 | 0.20 | 0.20 | 87 | 1009.8 |
| 20260510031541 | 53 | 327 | 0.0 | 0.0 | 0.00 | 0.20 | 0.20 | 87 | 1009.9 |
| 20260510031031 | 53 | 327 | 0.0 | 0.0 | 0.00 | 0.20 | 0.20 | 87 | 1009.9 |
| 20260510030549 | 53 | 327 | 0.0 | 0.0 | 0.00 | 0.20 | 0.20 | 88 | 1009.9 |
| 20260510030050 | 53 | 327 | 0.0 | 0.0 | 0.00 | 0.20 | 0.20 | 88 | 1009.9 |
| 20260510025525 | 53 | 327 | 0.0 | 0.0 | 0.00 | 0.20 | 0.20 | 88 | 1009.9 |
| 20260510025054 | 53 | 327 | 0.0 | 0.0 | 0.00 | 0.20 | 0.20 | 88 | 1010.0 |
| 20260510024529 | 53 | 327 | 0.0 | 0.0 | 0.00 | 0.20 | 0.20 | 88 | 1009.9 |
| 20260510023543 | 53 | 327 | 0.0 | 0.0 | 0.00 | 0.20 | 0.20 | 88 | 1010.0 |
| 20260510023042 | 54 | 327 | 0.0 | 0.0 | 0.00 | 0.20 | 0.20 | 87 | 1009.8 |
| 20260510022540 | 54 | 327 | 0.0 | 0.0 | 0.00 | 0.20 | 0.20 | 87 | 1009.9 |
| 20260510022041 | 54 | 327 | 0.0 | 0.0 | 0.00 | 0.20 | 0.20 | 86 | 1009.9 |
| 20260510021541 | 54 | 327 | 0.0 | 0.0 | 0.00 | 0.20 | 0.20 | 86 | 1009.9 |
| 20260510021101 | 54 | 327 | 0.0 | 0.0 | 0.00 | 0.20 | 0.20 | 86 | 1009.9 |
| 20260510020558 | 54 | 327 | 0.0 | 0.0 | 0.00 | 0.20 | 0.20 | 86 | 1009.8 |
| 20260510020054 | 55 | 327 | 0.0 | 0.0 | 0.00 | 0.20 | 0.20 | 86 | 1009.8 |
| 20260510015527 | 55 | 327 | 0.0 | 0.0 | 0.00 | 0.20 | 0.20 | 86 | 1009.7 |
| 20260510015044 | 55 | 327 | 0.0 | 0.0 | 0.00 | 0.20 | 0.20 | 86 | 1009.6 |
| 20260510014540 | 55 | 327 | 0.0 | 0.0 | 0.00 | 0.20 | 0.20 | 86 | 1009.4 |
| 20260510014057 | 55 | 327 | 0.0 | 0.0 | 0.00 | 0.20 | 0.20 | 85 | 1009.3 |
| 20260510013526 | 56 | 327 | 0.0 | 0.0 | 0.00 | 0.20 | 0.20 | 85 | 1009.2 |
| 20260510013105 | 56 | 327 | 0.0 | 0.0 | 0.00 | 0.20 | 0.20 | 84 | 1009.1 |
| 20260510012535 | 56 | 327 | 0.0 | 0.0 | 0.00 | 0.20 | 0.20 | 84 | 1009.0 |
| 20260510012055 | 56 | 327 | 0.0 | 0.0 | 0.00 | 0.20 | 0.20 | 84 | 1008.9 |
| 20260510011527 | 56 | 327 | 0.0 | 0.0 | 0.00 | 0.20 | 0.20 | 83 | 1009.1 |
| 20260510011104 | 56 | 327 | 0.0 | 0.0 | 0.00 | 0.20 | 0.20 | 83 | 1009.1 |
| 20260510010535 | 57 | 327 | 0.0 | 0.0 | 0.00 | 0.20 | 0.20 | 83 | 1009.0 |
| 20260510010026 | 57 | 327 | 0.0 | 0.0 | 0.00 | 0.20 | 0.20 | 82 | 1008.9 |
| 20260510005543 | 57 | 327 | 0.0 | 0.0 | 0.00 | 0.20 | 0.20 | 82 | 1008.8 |
| 20260510005043 | 57 | 327 | 0.0 | 0.9 | 0.00 | 0.20 | 0.20 | 82 | 1008.7 |
| 20260510004540 | 58 | 327 | 0.0 | 1.7 | 0.00 | 0.20 | 0.20 | 82 | 1008.6 |
| 20260510004040 | 58 | 327 | 0.9 | 1.7 | 0.00 | 0.20 | 0.20 | 81 | 1008.5 |
| 20260510003537 | 58 | 327 | 0.0 | 0.0 | 0.00 | 0.20 | 0.20 | 80 | 1008.4 |
| 20260510003055 | 59 | 327 | 0.0 | 0.0 | 0.00 | 0.20 | 0.20 | 80 | 1008.4 |
| 20260510002527 | 59 | 327 | 0.0 | 0.0 | 0.00 | 0.20 | 0.20 | 80 | 1008.4 |
| 20260510002045 | 59 | 327 | 0.0 | 0.0 | 0.00 | 0.20 | 0.20 | 79 | 1008.5 |
| 20260510001543 | 59 | 327 | 0.0 | 0.9 | 0.00 | 0.20 | 0.20 | 79 | 1008.4 |
| 20260510001044 | 60 | 327 | 0.0 | 1.7 | 0.00 | 0.20 | 0.20 | 78 | 1008.4 |
| 20260510000542 | 60 | 327 | 0.9 | 1.7 | 0.00 | 0.20 | 0.20 | 78 | 1008.4 |
| 20260510000037 | 60 | 327 | 0.9 | 1.7 | 0.00 | 0.20 | 0.20 | 77 | 1008.4 |
| 20260509235529 | 61 | 327 | 0.0 | 0.0 | 0.00 | 0.20 | 0.20 | 76 | 1008.4 |
| 20260509235049 | 61 | 327 | 0.0 | 0.9 | 0.00 | 0.20 | 0.20 | 76 | 1008.3 |
| 20260509234543 | 61 | 327 | 0.0 | 0.9 | 0.00 | 0.20 | 0.20 | 75 | 1008.2 |
| 20260509234037 | 61 | 327 | 0.9 | 0.9 | 0.00 | 0.20 | 0.20 | 76 | 1008.2 |
| 20260509233527 | 62 | 327 | 0.0 | 0.9 | 0.00 | 0.20 | 0.20 | 75 | 1008.1 |
| 20260509233046 | 62 | 327 | 0.0 | 1.7 | 0.00 | 0.20 | 0.20 | 75 | 1008.2 |
| 20260509232601 | 62 | 327 | 0.9 | 2.6 | 0.00 | 0.20 | 0.20 | 75 | 1008.3 |
| 20260509232035 | 62 | 327 | 0.9 | 2.6 | 0.00 | 0.20 | 0.20 | 75 | 1008.1 |
| 20260509231527 | 62 | 327 | 0.9 | 2.6 | 0.00 | 0.20 | 0.20 | 74 | 1008.3 |
| 20260509231044 | 62 | 327 | 1.7 | 3.5 | 0.00 | 0.20 | 0.20 | 74 | 1008.3 |
| 20260509230602 | 62 | 327 | 1.7 | 4.3 | 0.00 | 0.20 | 0.20 | 74 | 1008.4 |
| 20260509230036 | 62 | 316 | 2.6 | 4.3 | 0.00 | 0.20 | 0.20 | 75 | 1008.4 |
| 20260509225528 | 63 | 317 | 1.7 | 3.5 | 0.00 | 0.20 | 0.20 | 74 | 1008.4 |
| 20260509225046 | 63 | 300 | 0.9 | 4.3 | 0.00 | 0.20 | 0.20 | 74 | 1008.4 |
| 20260509224537 | 63 | 295 | 2.6 | 4.3 | 0.00 | 0.20 | 0.20 | 75 | 1008.4 |
| 20260509224059 | 63 | 296 | 2.6 | 3.5 | 0.00 | 0.20 | 0.20 | 75 | 1008.4 |
| 20260509223531 | 62 | 46 | 0.9 | 1.7 | 0.00 | 0.20 | 0.20 | 74 | 1008.4 |
| 20260509223026 | 62 | 46 | 0.0 | 1.7 | 0.00 | 0.20 | 0.20 | 74 | 1008.3 |
| 20260509222536 | 62 | 46 | 0.0 | 2.6 | 0.00 | 0.20 | 0.20 | 74 | 1008.3 |
| 20260509222036 | 62 | 46 | 1.7 | 2.6 | 0.00 | 0.20 | 0.20 | 76 | 1008.3 |
| 20260509221528 | 62 | 46 | 0.9 | 2.6 | 0.00 | 0.20 | 0.20 | 75 | 1008.3 |
| 20260509221044 | 62 | 44 | 0.9 | 2.6 | 0.00 | 0.20 | 0.20 | 74 | 1008.4 |
| 20260509220538 | 62 | 44 | 0.9 | 2.6 | 0.00 | 0.20 | 0.20 | 75 | 1008.4 |
| 20260509220032 | 62 | 14 | 0.0 | 3.5 | 0.00 | 0.20 | 0.20 | 75 | 1008.5 |
| 20260509215524 | 62 | 14 | 1.7 | 3.5 | 0.00 | 0.20 | 0.20 | 76 | 1008.5 |
| 20260509215037 | 62 | 33 | 0.9 | 4.3 | 0.00 | 0.20 | 0.20 | 76 | 1008.5 |
| 20260509214532 | 62 | 360 | 2.6 | 4.3 | 0.00 | 0.20 | 0.20 | 75 | 1008.5 |
| 20260509214027 | 62 | 348 | 3.5 | 4.3 | 0.00 | 0.20 | 0.20 | 75 | 1008.6 |
| 20260509213543 | 62 | 28 | 0.9 | 5.2 | 0.00 | 0.20 | 0.20 | 76 | 1008.6 |
| 20260509213037 | 62 | 21 | 1.7 | 5.2 | 0.00 | 0.20 | 0.20 | 75 | 1008.6 |
| 20260509212526 | 62 | 24 | 1.7 | 4.3 | 0.00 | 0.20 | 0.20 | 75 | 1008.7 |
| 20260509212044 | 62 | 38 | 1.7 | 5.2 | 0.00 | 0.20 | 0.20 | 76 | 1008.6 |
| 20260509211537 | 62 | 9 | 2.6 | 5.2 | 0.00 | 0.20 | 0.20 | 76 | 1008.7 |
| 20260509211034 | 61 | 16 | 1.7 | 4.3 | 0.00 | 0.20 | 0.20 | 77 | 1008.7 |
| 20260509210528 | 61 | 5 | 1.7 | 4.3 | 0.00 | 0.20 | 0.20 | 76 | 1008.8 |
| 20260509210048 | 61 | 360 | 1.7 | 7.0 | 0.00 | 0.20 | 0.20 | 79 | 1008.9 |
| 20260509205544 | 61 | 46 | 2.6 | 7.0 | 0.00 | 0.20 | 0.20 | 78 | 1009.0 |
| 20260509205039 | 61 | 58 | 1.7 | 4.3 | 0.00 | 0.20 | 0.20 | 79 | 1009.0 |
| 20260509204542 | 61 | 13 | 2.6 | 5.2 | 0.00 | 0.20 | 0.20 | 78 | 1009.0 |
| 20260509204043 | 61 | 26 | 1.7 | 7.8 | 0.00 | 0.20 | 0.20 | 78 | 1009.0 |
| 20260509203536 | 61 | 11 | 3.5 | 7.8 | 0.00 | 0.20 | 0.20 | 78 | 1009.2 |
| 20260509203032 | 61 | 351 | 1.7 | 4.3 | 0.00 | 0.20 | 0.20 | 77 | 1009.2 |
| 20260509202525 | 61 | 34 | 0.9 | 4.3 | 0.00 | 0.20 | 0.20 | 76 | 1009.2 |
| 20260509202044 | 61 | 355 | 1.7 | 5.2 | 0.00 | 0.20 | 0.20 | 75 | 1009.2 |
| 20260509201602 | 62 | 321 | 3.5 | 5.2 | 0.00 | 0.20 | 0.20 | 74 | 1009.1 |
| 20260509201037 | 62 | 338 | 2.6 | 7.0 | 0.00 | 0.20 | 0.20 | 75 | 1009.2 |
| 20260509200527 | 62 | 317 | 2.6 | 7.0 | 0.00 | 0.20 | 0.20 | 73 | 1009.2 |
| 20260509200042 | 62 | 332 | 2.6 | 7.0 | 0.00 | 0.20 | 0.20 | 74 | 1009.3 |
| 20260509195541 | 62 | 317 | 2.6 | 5.2 | 0.00 | 0.20 | 0.20 | 74 | 1009.4 |
| 20260509195042 | 62 | 329 | 3.5 | 7.8 | 0.00 | 0.20 | 0.20 | 73 | 1009.3 |
| 20260509194540 | 62 | 328 | 3.5 | 7.8 | 0.00 | 0.20 | 0.20 | 73 | 1009.4 |
| 20260509194101 | 62 | 290 | 3.5 | 7.8 | 0.00 | 0.20 | 0.20 | 71 | 1009.4 |
| 20260509193540 | 63 | 287 | 5.2 | 7.8 | 0.00 | 0.20 | 0.20 | 71 | 1009.5 |
| 20260509193102 | 63 | 287 | 4.3 | 6.1 | 0.00 | 0.20 | 0.20 | 69 | 1009.2 |
| 20260509192536 | 63 | 200 | 1.7 | 2.6 | 0.00 | 0.20 | 0.20 | 69 | 1009.1 |
| 20260509192029 | 63 | 200 | 1.7 | 2.6 | 0.00 | 0.20 | 0.20 | 69 | 1009.0 |
| 20260509191525 | 63 | 128 | 0.9 | 3.5 | 0.00 | 0.20 | 0.20 | 69 | 1009.0 |
| 20260509191101 | 63 | 128 | 0.9 | 3.5 | 0.00 | 0.20 | 0.20 | 70 | 1009.0 |
| 20260509190557 | 63 | 146 | 1.7 | 3.5 | 0.00 | 0.20 | 0.20 | 73 | 1008.9 |
| 20260509190035 | 63 | 289 | 0.9 | 1.7 | 0.00 | 0.20 | 0.20 | 73 | 1008.9 |
| 20260509185526 | 62 | 289 | 0.0 | 1.7 | 0.00 | 0.20 | 0.20 | 72 | 1009.1 |
| 20260509185047 | 62 | 267 | 0.0 | 4.3 | 0.00 | 0.20 | 0.20 | 75 | 1009.3 |
| 20260509184538 | 61 | 251 | 1.7 | 4.3 | 0.00 | 0.20 | 0.20 | 76 | 1009.1 |
| 20260509184101 | 61 | 192 | 2.6 | 4.3 | 0.00 | 0.20 | 0.20 | 75 | 1009.5 |
| 20260509183530 | 61 | 217 | 0.9 | 5.2 | 0.00 | 0.20 | 0.20 | 78 | 1009.6 |
| 20260509183026 | 60 | 198 | 3.5 | 5.2 | 0.00 | 0.20 | 0.20 | 78 | 1009.7 |
| 20260509182534 | 60 | 309 | 1.7 | 3.5 | 0.00 | 0.20 | 0.20 | 80 | 1009.6 |
| 20260509182031 | 60 | 265 | 1.7 | 3.5 | 0.00 | 0.20 | 0.20 | 80 | 1009.9 |
| 20260509181524 | 59 | 225 | 0.0 | 3.5 | 0.00 | 0.20 | 0.20 | 80 | 1009.8 |
| 20260509181042 | 59 | 195 | 0.9 | 2.6 | 0.00 | 0.20 | 0.20 | 81 | 1010.0 |
| 20260509180540 | 59 | 237 | 0.0 | 6.1 | 0.00 | 0.20 | 0.20 | 81 | 1009.9 |
| 20260509180034 | 58 | 163 | 2.6 | 6.1 | 0.00 | 0.20 | 0.20 | 81 | 1009.9 |
| 20260509175526 | 58 | 194 | 4.3 | 6.1 | 0.00 | 0.20 | 0.20 | 81 | 1010.0 |
| 20260509175042 | 58 | 155 | 3.5 | 7.0 | 0.00 | 0.20 | 0.20 | 82 | 1010.0 |
| 20260509174534 | 59 | 144 | 5.2 | 7.0 | 0.00 | 0.20 | 0.20 | 83 | 1010.0 |
| 20260509174057 | 58 | 188 | 0.9 | 4.3 | 0.00 | 0.20 | 0.20 | 85 | 1010.0 |
| 20260509173529 | 58 | 146 | 3.5 | 4.3 | 0.00 | 0.20 | 0.20 | 86 | 1010.1 |
| 20260509173025 | 58 | 155 | 2.6 | 4.3 | 0.00 | 0.20 | 0.20 | 85 | 1010.1 |
| 20260509172543 | 58 | 138 | 0.0 | 3.5 | 0.00 | 0.20 | 0.20 | 87 | 1010.0 |
| 20260509172105 | 57 | 138 | 0.9 | 4.3 | 0.00 | 0.20 | 0.20 | 88 | 1010.0 |
| 20260509171538 | 57 | 123 | 1.7 | 6.1 | 0.00 | 0.20 | 0.20 | 88 | 1010.2 |